When you browse on this site, cookies collect data to enhance your experience and personalize the content and advertising you see.
Visit our Privacy Policy to learn more. By continuing to use the site, you agree to this use of cookies and data.
  • In Netherlands
  • List of Countries
  • For 7 days
  • Water Temperature
  • Satellite Maps
  • Weather Map
  • Weather Widgets
  • user-avatar
    Login

    Hourly Weather Maceio

    Today, 21 July, Sunday

    Time Temperature Precipitation Wind Pressure Humidity
    00:00 +23°C° 0.8 mm 5 mps 763 mmHg 91%
    01:00 +23°C° 0.8 mm 5 mps 762 mmHg 91%
    02:00 +23°C° 0.8 mm 5 mps 762 mmHg 92%
    03:00 +22°C° 0.8 mm 5 mps 762 mmHg 92%
    04:00 +22°C° 0.8 mm 5 mps 761 mmHg 93%
    05:00 +22°C° 1.1 mm 5 mps 761 mmHg 93%
    06:00 +22°C° 1.1 mm 5 mps 762 mmHg 93%
    07:00 +23°C° 1.1 mm 5 mps 762 mmHg 93%
    08:00 +23°C° 1 mm 6 mps 762 mmHg 92%
    09:00 +23°C° 1 mm 6 mps 763 mmHg 91%
    10:00 +24°C° 1 mm 6 mps 763 mmHg 90%
    11:00 +24°C° 0.6 mm 6 mps 763 mmHg 88%
    12:00 +26°C° 0.6 mm 6 mps 763 mmHg 86%
    13:00 +27°C° 0.6 mm 5 mps 763 mmHg 85%
    14:00 +27°C° 0.4 mm 5 mps 762 mmHg 84%
    15:00 +27°C° 0.4 mm 5 mps 762 mmHg 83%
    16:00 +27°C° 0.4 mm 5 mps 761 mmHg 83%
    17:00 +26°C° 0.3 mm 5 mps 761 mmHg 85%
    18:00 +25°C° 0.3 mm 5 mps 762 mmHg 87%
    19:00 +23°C° 0.3 mm 5 mps 762 mmHg 89%
    20:00 +23°C° 0.1 mm 5 mps 762 mmHg 89%
    21:00 +23°C° 0.1 mm 5 mps 763 mmHg 88%
    22:00 +23°C° 0.1 mm 5 mps 763 mmHg 88%
    23:00 +22°C° 0.1 mm 5 mps 763 mmHg 88%

    Tomorrow, 22 July, Monday

    Time Temperature Precipitation Wind Pressure Humidity
    00:00 +22°C° 0.1 mm 5 mps 763 mmHg 89%
    01:00 +22°C° 0.1 mm 5 mps 763 mmHg 89%
    02:00 +22°C° 0 mm 6 mps 762 mmHg 90%
    03:00 +22°C° 0 mm 6 mps 762 mmHg 90%
    04:00 +22°C° 0 mm 6 mps 761 mmHg 90%
    05:00 +22°C° 0.1 mm 6 mps 762 mmHg 89%
    06:00 +22°C° 0.1 mm 6 mps 762 mmHg 89%
    07:00 +22°C° 0.1 mm 6 mps 762 mmHg 89%
    08:00 +23°C° 0.1 mm 6 mps 762 mmHg 86%
    09:00 +24°C° 0.1 mm 6 mps 762 mmHg 83%
    10:00 +27°C° 0.1 mm 6 mps 763 mmHg 80%
    11:00 +27°C° 0.1 mm 6 mps 762 mmHg 76%
    12:00 +28°C° 0.1 mm 6 mps 762 mmHg 71%
    13:00 +29°C° 0.1 mm 6 mps 762 mmHg 67%
    14:00 +29°C° 0.1 mm 6 mps 762 mmHg 69%
    15:00 +28°C° 0.1 mm 6 mps 761 mmHg 70%
    16:00 +28°C° 0.1 mm 6 mps 761 mmHg 72%
    17:00 +27°C° 0.5 mm 5 mps 761 mmHg 78%
    18:00 +25°C° 0.5 mm 5 mps 761 mmHg 84%
    19:00 +23°C° 0.5 mm 5 mps 761 mmHg 89%
    20:00 +23°C° 0.5 mm 5 mps 762 mmHg 90%
    21:00 +23°C° 0.5 mm 5 mps 762 mmHg 90%
    22:00 +23°C° 0.5 mm 5 mps 763 mmHg 90%
    23:00 +23°C° 0.5 mm 5 mps 763 mmHg 91%

    Day after tomorrow, 23 July, Tuesday

    Time Temperature Precipitation Wind Pressure Humidity
    00:00 +23°C° 0.5 mm 5 mps 762 mmHg 91%
    01:00 +23°C° 0.5 mm 5 mps 762 mmHg 91%
    02:00 +23°C° 0.6 mm 5 mps 762 mmHg 91%
    03:00 +23°C° 0.6 mm 5 mps 761 mmHg 92%
    04:00 +23°C° 0.6 mm 5 mps 761 mmHg 92%
    05:00 +23°C° 0.6 mm 5 mps 761 mmHg 92%
    06:00 +23°C° 0.6 mm 5 mps 761 mmHg 92%
    07:00 +23°C° 0.6 mm 5 mps 761 mmHg 92%
    08:00 +25°C° 0.5 mm 5 mps 762 mmHg 89%
    09:00 +26°C° 0.5 mm 5 mps 762 mmHg 86%
    10:00 +27°C° 0.5 mm 5 mps 763 mmHg 83%
    11:00 +28°C° 0.1 mm 5 mps 762 mmHg 78%
    12:00 +28°C° 0.1 mm 5 mps 762 mmHg 74%
    13:00 +29°C° 0.1 mm 5 mps 762 mmHg 70%
    14:00 +29°C° 0.1 mm 5 mps 761 mmHg 72%
    15:00 +28°C° 0.1 mm 5 mps 761 mmHg 74%
    16:00 +28°C° 0.1 mm 5 mps 761 mmHg 75%
    17:00 +27°C° 0 mm 5 mps 761 mmHg 79%
    18:00 +26°C° 0 mm 4 mps 761 mmHg 83%
    19:00 +25°C° 0 mm 4 mps 761 mmHg 87%
    20:00 +25°C° 0.1 mm 4 mps 761 mmHg 88%
    21:00 +23°C° 0.1 mm 4 mps 762 mmHg 88%
    22:00 +23°C° 0.1 mm 4 mps 762 mmHg 89%
    23:00 +23°C° 0.2 mm 4 mps 762 mmHg 90%

    24 July, Wednesday

    Time Temperature Precipitation Wind Pressure Humidity
    00:00 +23°C° 0.2 mm 4 mps 762 mmHg 90%
    01:00 +23°C° 0.2 mm 4 mps 761 mmHg 90%
    02:00 +23°C° 0.1 mm 4 mps 761 mmHg 91%
    03:00 +23°C° 0.1 mm 4 mps 761 mmHg 91%
    04:00 +23°C° 0.1 mm 4 mps 760 mmHg 91%
    05:00 +23°C° 0.2 mm 4 mps 760 mmHg 91%
    06:00 +23°C° 0.2 mm 4 mps 761 mmHg 91%
    07:00 +23°C° 0.2 mm 4 mps 761 mmHg 91%
    08:00 +25°C° 0.2 mm 5 mps 761 mmHg 88%
    09:00 +26°C° 0.2 mm 5 mps 762 mmHg 85%
    10:00 +27°C° 0.2 mm 5 mps 762 mmHg 82%
    11:00 +28°C° 0.1 mm 5 mps 762 mmHg 79%
    12:00 +28°C° 0.1 mm 5 mps 761 mmHg 76%
    13:00 +29°C° 0.1 mm 5 mps 761 mmHg 74%
    14:00 +28°C° 0.1 mm 5 mps 761 mmHg 73%
    15:00 +28°C° 0.1 mm 5 mps 760 mmHg 73%
    16:00 +28°C° 0.1 mm 5 mps 760 mmHg 73%
    17:00 +27°C° 0 mm 5 mps 760 mmHg 76%
    18:00 +26°C° 0 mm 5 mps 761 mmHg 80%
    19:00 +25°C° 0 mm 5 mps 761 mmHg 83%
    20:00 +25°C° 0 mm 4 mps 761 mmHg 84%
    21:00 +25°C° 0 mm 4 mps 762 mmHg 85%
    22:00 +23°C° 0 mm 4 mps 762 mmHg 86%
    23:00 +23°C° 0 mm 4 mps 762 mmHg 87%

    25 July, Thursday

    Time Temperature Precipitation Wind Pressure Humidity
    00:00 +23°C° 0 mm 4 mps 761 mmHg 87%
    01:00 +23°C° 0 mm 4 mps 761 mmHg 88%
    02:00 +23°C° 0 mm 4 mps 761 mmHg 87%
    03:00 +24°C° 0 mm 3 mps 760 mmHg 86%
    04:00 +24°C° 0 mm 3 mps 760 mmHg 86%
    05:00 +23°C° 0 mm 4 mps 760 mmHg 85%
    06:00 +25°C° 0 mm 4 mps 760 mmHg 84%
    07:00 +25°C° 0 mm 5 mps 761 mmHg 83%
    08:00 +26°C° 0.1 mm 4 mps 761 mmHg 80%
    09:00 +27°C° 0.1 mm 4 mps 762 mmHg 77%
    10:00 +27°C° 0.1 mm 4 mps 762 mmHg 74%
    11:00 +28°C° 0.3 mm 4 mps 762 mmHg 73%
    12:00 +28°C° 0.3 mm 4 mps 761 mmHg 73%
    13:00 +29°C° 0.3 mm 5 mps 761 mmHg 72%
    14:00 +28°C° 0.4 mm 5 mps 761 mmHg 75%
    15:00 +28°C° 0.4 mm 5 mps 760 mmHg 77%
    16:00 +28°C° 0.4 mm 6 mps 760 mmHg 79%
    17:00 +27°C° 0.2 mm 6 mps 760 mmHg 82%
    18:00 +26°C° 0.2 mm 5 mps 761 mmHg 85%
    19:00 +25°C° 0.2 mm 5 mps 761 mmHg 89%
    20:00 +25°C° 0 mm 5 mps 761 mmHg 89%
    21:00 +23°C° 0 mm 5 mps 762 mmHg 89%
    22:00 +23°C° 0 mm 5 mps 762 mmHg 89%
    23:00 +23°C° 0 mm 5 mps 762 mmHg 89%

    26 July, Friday

    Time Temperature Precipitation Wind Pressure Humidity
    00:00 +23°C° 0 mm 4 mps 762 mmHg 90%
    01:00 +23°C° 0 mm 4 mps 762 mmHg 90%
    02:00 +23°C° 0.1 mm 4 mps 761 mmHg 91%
    03:00 +22°C° 0.1 mm 4 mps 761 mmHg 91%
    04:00 +22°C° 0.1 mm 4 mps 761 mmHg 91%
    05:00 +22°C° 0.1 mm 4 mps 761 mmHg 91%
    06:00 +22°C° 0.1 mm 4 mps 761 mmHg 92%
    07:00 +22°C° 0.1 mm 4 mps 761 mmHg 92%
    08:00 +25°C° 0.1 mm 4 mps 762 mmHg 87%
    09:00 +26°C° 0.1 mm 4 mps 762 mmHg 82%
    10:00 +27°C° 0.1 mm 5 mps 762 mmHg 78%
    11:00 +28°C° 0 mm 5 mps 762 mmHg 73%
    12:00 +29°C° 0 mm 5 mps 761 mmHg 67%
    13:00 +30°C° 0 mm 5 mps 761 mmHg 62%
    14:00 +29°C° 0 mm 5 mps 761 mmHg 64%
    15:00 +29°C° 0 mm 5 mps 761 mmHg 66%
    16:00 +29°C° 0 mm 5 mps 760 mmHg 69%
    17:00 +27°C° 0.3 mm 5 mps 761 mmHg 75%
    18:00 +26°C° 0.3 mm 5 mps 761 mmHg 82%
    19:00 +25°C° 0.3 mm 5 mps 761 mmHg 89%
    20:00 +25°C° 0.2 mm 5 mps 762 mmHg 89%
    21:00 +25°C° 0.2 mm 5 mps 762 mmHg 89%
    22:00 +25°C° 0.2 mm 5 mps 763 mmHg 90%
    23:00 +23°C° 0.1 mm 5 mps 762 mmHg 90%
    Show more